Location: Fours
(44.3167°N, 6.7000°E)
Time: 11:09:03
(UTC+00:00)

Cosmos 2227 - Pass Details

Date: 06 December 2023
Orbit: 836 x 859 km, 71.0° (Epoch: 21 February)

Event Time Altitude Azimuth Distance (km) Brightness Sun altitude
Rises 17:48:22 0° 225° (SW) 3,422 8.3 -19.7°
Reaches altitude 10° 17:50:57 10° 232° (SW) 2,489 7.6 -20.2°
Maximum altitude 17:56:22 43° 303° (WNW) 1,198 5.3 -21.1°
Enters shadow 18:01:25 12° 12° (NNE) 2,358 6.3 -22.0°
